千帆星座-44 (QIANFAN-44)

Basic Information
目录编号:
62245
目录名称:
QIANFAN-44
国际标识:
2024-232J
轨道中心:
EARTH
卫星名称:
千帆星座-44
卫星全名:
千帆星座-44 (QIANFAN-44)
卫星状态:
在轨 (已飞行464 天)
发射日期:
2024-12-05 UTC
国别 :
中国 (CN)
星等 :
--
Orbit Information
数据来源 国际轨道数据 AOE轨道数据
星历时间 2026-03-13T21:08:54+0800
14小时前
查看轨道信息
2026-03-13T13:00:00+0800
22小时前
查看轨道信息
半长轴 7446.704km 7446.704km
偏心率 0.0011914 0.0010421
轨道倾角 89.007° 89.007°
近地点辐角 296.814° 292.356°
升交点赤经 31.912° 31.943°
平近点角 63.180° 217.389°
近地点 1059.694km 1060.806km
远地点 1077.44km 1076.328km
周期 106.587分钟 106.587分钟
每日圈数 13.51004 13.510041
Detailed Information
卫星平台:
44
覆盖范围:
全球
运营商:
上海垣信卫星科技有限公司
运营商所在国:
中国
使用方式:
暂无
Satellite Introduction
千帆星座,也被称为“G60星链”计划,是中国版“星链”的重要组成部分,旨在打造一个由1.4万多颗低轨宽频多媒体卫星构成的庞大星座。千帆星座计划由上海垣信卫星科技有限公司负责实施,于2023年启动建设。该项目是我国第二个低轨卫星大星座,旨在通过构建庞大的卫星网络,为全球用户提供高质量的通信和宽带互联网服务。
2D Orbit Map
3D Orbit Map
Orbit Altitude Analysis Chart
Orbit Inclination Analysis Chart
Orbit Comprehensive Analysis Chart
View Comprehensive Chart